Oxford, CT

3:14 AM EDT on April 20, 2018 (GMT -0400)
Waterbury-Oxford

Weather History for KOXC - December, 2012

Change the Weather History Date:

Monday, December 3, 2012

  Actual Average Record
Temperature  
Mean Temperature 45 °F -  
Max Temperature 55 °F 41 °F 60 °F (1998)
Min Temperature 35 °F 26 °F 8 °F (2000)
Degree Days  
Heating Degree Days 20    
Moisture  
Dew Point 40 °F    
Average Humidity 86    
Maximum Humidity 100    
Minimum Humidity 58    
Precipitation  
Precipitation 0.00 in - - ()
Sea Level Pressure  
Sea Level Pressure 30.19 in    
Wind  
Wind Speed 4 mph (NW)    
Max Wind Speed 9 mph    
Max Gust Speed -    
Visibility 5 miles    
Events Fog    
Averages and records for this station are not official NWS values.
T = Trace of Precipitation, MM = Missing Value Source: NWS Daily Summary

Daily Weather History Graph

Daily Weather History Graph

Search for Another Location

Airport or City:

Astronomy

Dec. 03, 2012 Rise Set
Actual Time 7:01 AM EST 4:23 PM EST
Civil Twilight 6:31 AM EST 4:54 PM EST
Nautical Twilight 5:56 AM EST 5:28 PM EST
Astronomical Twilight 5:23 AM EST 6:01 PM EST
Moon 9:09 PM EST (12/3) 10:22 AM EST (12/3)
Length of Visible Light 10h 23m
Length of Day
9h 21m
Waning Gibbous, 78% of the Moon is Illuminated
Dec 3
Waning Gibbous
Dec 6
Last Quarter
Dec 13
New
Dec 20
First Quarter
Dec 28
Full

Hourly Weather History & Observations

Time (EST) Temp. Windchill Dew Point Humidity Pressure Visibility Wind Dir Wind Speed Gust Speed Precip Events Conditions
12:15 AM 46.4 °F 44.3 °F 44.6 °F 93% 30.11 in 3.0 mi WSW 4.6 mph - N/A   Overcast
12:35 AM 46.4 °F 44.3 °F 44.6 °F 93% 30.10 in 2.5 mi WSW 4.6 mph - N/A   Overcast
12:55 AM 46.4 °F 45.2 °F 44.6 °F 93% 30.09 in 2.0 mi SW 3.5 mph - N/A   Overcast
1:15 AM 46.4 °F 44.3 °F 44.6 °F 93% 30.11 in 2.5 mi WSW 4.6 mph - N/A   Overcast
1:35 AM 46.4 °F 45.2 °F 44.6 °F 93% 30.11 in 2.5 mi West 3.5 mph - N/A   Overcast
1:55 AM 46.4 °F 45.2 °F 42.8 °F 87% 30.11 in 1.8 mi WSW 3.5 mph - N/A   Overcast
2:15 AM 44.6 °F 43.1 °F 42.8 °F 93% 30.11 in 1.0 mi West 3.5 mph - N/A   Overcast
2:35 AM 44.6 °F 42.2 °F 42.8 °F 93% 30.12 in 2.0 mi West 4.6 mph - N/A   Mostly Cloudy
2:55 AM 44.6 °F 42.2 °F 42.8 °F 93% 30.11 in 2.5 mi West 4.6 mph - N/A   Clear
3:15 AM 44.6 °F 43.1 °F 42.8 °F 93% 30.11 in 2.0 mi WSW 3.5 mph - N/A   Mostly Cloudy
3:35 AM 44.6 °F - 42.8 °F 93% 30.11 in 1.0 mi Calm Calm - N/A   Overcast
3:55 AM 44.6 °F - 42.8 °F 93% 30.12 in 1.5 mi Calm Calm - N/A   Overcast
4:15 AM 44.6 °F 43.1 °F 42.8 °F 93% 30.12 in 0.8 mi WSW 3.5 mph - N/A   Overcast
4:35 AM 44.6 °F 41.4 °F 42.8 °F 93% 30.13 in 0.2 mi NW 5.8 mph - N/A   Overcast
4:55 AM 44.6 °F 42.2 °F 42.8 °F 93% 30.13 in 0.2 mi West 4.6 mph - N/A   Overcast
5:15 AM 44.6 °F - 42.8 °F 93% 30.13 in 0.2 mi Calm Calm - N/A   Overcast
5:35 AM 44.6 °F - 42.8 °F 93% 30.14 in 0.2 mi Calm Calm - N/A   Overcast
5:45 AM 44.6 °F - 42.8 °F 93% 30.15 in 0.2 mi Calm Calm - N/A Fog Fog
6:45 AM 42.8 °F - 42.8 °F 100% 30.16 in 0.2 mi Calm Calm - N/A Fog Fog
7:45 AM 42.8 °F - 39.2 °F 87% 30.18 in 0.2 mi Calm Calm - N/A Fog Fog
8:45 AM 44.6 °F - 42.8 °F 93% 30.20 in 0.2 mi Calm Calm - N/A Fog Fog
10:20 AM 48.2 °F - 44.6 °F 87% 30.22 in 3.0 mi Calm Calm - N/A   Scattered Clouds
11:10 AM 50.0 °F - 44.6 °F 82% 30.21 in 5.0 mi NNE 6.9 mph - N/A   Mostly Cloudy
11:45 AM 51.8 °F - 44.6 °F 76% 30.20 in 6.0 mi NNW 5.8 mph - N/A   Mostly Cloudy
12:55 PM 55.4 °F - 42.8 °F 63% 30.19 in 10.0 mi NNW 9.2 mph - N/A   Partly Cloudy
1:45 PM 55.4 °F - 41.0 °F 58% 30.19 in 10.0 mi North 6.9 mph - N/A   Clear
2:45 PM 53.6 °F - 41.0 °F 62% 30.20 in 10.0 mi North 8.1 mph - N/A   Clear
3:45 PM 53.6 °F - 39.2 °F 58% 30.22 in 10.0 mi NNW 8.1 mph - N/A   Clear
4:45 PM 50.0 °F - 39.2 °F 66% 30.24 in 10.0 mi North 5.8 mph - N/A   Clear
5:45 PM 44.6 °F 41.4 °F 37.4 °F 76% 30.27 in 10.0 mi NNE 5.8 mph - N/A   Clear
6:45 PM 44.6 °F 43.1 °F 37.4 °F 76% 30.27 in 10.0 mi ENE 3.5 mph - N/A   Clear
7:45 PM 42.8 °F 41.1 °F - N/A% 30.28 in 10.0 mi NNE 3.5 mph - N/A   Clear
8:55 PM 37.4 °F 33.8 °F 35.6 °F 93% 30.29 in 10.0 mi North 4.6 mph - N/A   Clear
9:15 PM 37.4 °F - 33.8 °F 87% 30.29 in 10.0 mi Calm Calm - N/A   Clear
9:35 PM 39.2 °F - 33.8 °F 81% 30.29 in 10.0 mi Calm Calm - N/A   Clear
9:55 PM 37.4 °F 33.8 °F 33.8 °F 87% 30.29 in 10.0 mi North 4.6 mph - N/A   Clear
10:15 PM 37.4 °F 34.9 °F 33.8 °F 87% 30.30 in 10.0 mi North 3.5 mph - N/A   Clear
10:35 PM 37.4 °F 34.9 °F 33.8 °F 87% 30.30 in 10.0 mi NE 3.5 mph - N/A   Clear
10:55 PM 35.6 °F - 33.8 °F 93% 30.30 in 10.0 mi Calm Calm - N/A   Clear
11:15 PM 35.6 °F 32.8 °F 30.2 °F 81% 30.30 in 6.0 mi NE 3.5 mph - N/A   Clear
11:35 PM 35.6 °F 32.8 °F 33.8 °F 93% 30.30 in 9.0 mi East 3.5 mph - N/A   Clear
11:55 PM 35.6 °F 32.8 °F 33.8 °F 93% 30.30 in 10.0 mi NNE 3.5 mph - N/A   Clear